Vorticity
nan nan nan nan nan nan nan nan nan nan nan nan nan nan nan nan nan nan nan nan nan nan nan nan nan nan nan nan nan nan nan nan nan nan nan nan nan nan nan nan nan nan nan nan nan nan nan nan nan
nan 10 5 7 9 11 5 2 10 8 6 4 8 4 -6 5 15 9 7 8 5 4 6 4 5 5 6 6 5 6 6 5 4 4 5 5 5 4 4 5 6 6 6 6 6 6 5 6 nan
nan 8 7 5 7 11 8 10 8 7 6 1 0 4 7 -0 1 12 12 7 5 5 7 5 6 6 5 5 5 5 5 4 4 5 5 5 5 5 6 5 6 6 5 5 6 6 6 5 nan
nan 9 5 3 8 5 5 12 3 4 5 6 6 7 5 6 15 14 7 5 5 5 4 5 3 7 7 7 6 5 5 6 6 6 6 5 5 5 5 7 8 8 8 8 7 6 6 6 nan
nan 4 2 9 9 6 4 5 6 6 8 6 2 10 6 10 15 11 5 5 5 7 6 3 5 9 9 9 8 9 9 9 8 10 9 8 7 8 8 8 8 8 7 8 8 9 10 9 nan
nan 6 12 6 7 6 8 5 7 5 8 13 6 2 7 11 6 6 8 8 7 6 6 2 3 6 10 10 10 9 9 10 10 9 9 10 8 8 9 7 6 6 6 6 6 7 7 8 nan
nan 0 9 10 7 9 5 10 9 7 7 5 8 4 10 10 7 4 3 10 8 5 6 7 5 -0 1 6 7 6 5 6 7 6 5 5 5 5 4 6 7 7 7 6 6 7 7 5 nan
nan 8 7 10 2 9 7 7 9 5 15 2 11 20 14 9 6 8 3 1 8 8 6 5 4 3 4 2 2 5 6 6 3 4 5 1 -2 -1 6 6 3 6 6 7 6 5 6 5 nan
nan 10 10 6 9 6 4 3 6 5 3 9 17 24 20 8 4 4 8 1 0 5 8 10 9 7 4 4 4 1 2 4 5 4 10 5 1 4 4 3 4 6 3 2 4 4 9 10 nan
nan 7 9 9 14 3 4 4 6 14 7 5 14 11 9 6 6 3 2 4 5 4 8 7 5 8 8 6 4 6 4 2 4 9 12 13 7 5 6 5 2 4 9 4 2 6 7 8 nan
nan 13 8 8 4 8 7 7 8 17 17 14 9 5 5 3 2 6 7 5 5 6 6 9 7 5 5 6 8 6 7 7 6 9 9 7 6 6 7 5 5 4 8 8 6 8 8 8 nan
nan 11 3 5 4 6 6 12 11 11 12 20 13 7 4 5 5 5 5 6 6 6 4 7 10 8 9 7 7 9 9 8 7 6 8 8 8 8 7 7 7 7 5 6 8 6 5 6 nan
nan 4 7 4 5 8 3 12 1 6 13 13 7 7 5 4 4 5 7 7 6 5 9 8 8 7 9 9 7 8 8 8 8 6 7 10 8 8 7 8 7 6 7 7 8 7 6 6 nan
nan 5 9 7 11 14 14 6 -2 2 11 13 8 3 8 5 2 5 5 6 7 7 7 7 10 10 9 9 10 7 7 7 6 7 8 9 9 8 8 7 7 7 7 8 7 7 8 8 nan
nan 9 6 9 9 14 10 2 10 11 9 6 9 7 6 6 5 4 6 8 7 9 9 7 6 9 9 7 8 8 8 7 7 6 6 7 9 9 8 7 7 7 7 8 8 8 8 8 nan
nan 9 8 9 7 9 3 11 9 9 8 7 6 8 8 2 4 6 7 11 8 7 7 8 8 6 6 7 8 8 8 7 7 6 4 6 8 8 9 8 7 8 8 8 8 7 8 8 nan
nan 9 13 -1 9 12 16 8 9 7 8 7 7 7 6 6 6 11 9 8 8 7 7 6 6 6 6 6 7 8 7 6 7 7 6 5 6 9 8 7 8 8 8 7 8 8 9 7 nan
nan 12 6 9 11 4 11 10 12 10 8 6 5 7 8 9 10 7 8 8 8 6 6 6 6 6 4 5 6 5 6 6 7 7 7 7 6 7 9 7 7 8 9 7 8 8 9 8 nan
nan 12 10 12 4 6 16 9 6 9 9 7 7 8 8 8 7 7 6 7 6 7 7 5 6 5 4 5 6 6 7 7 7 6 7 7 7 7 10 8 7 9 8 7 9 9 8 9 nan
nan 9 7 -1 7 11 11 4 9 9 9 10 7 8 8 8 5 6 6 6 6 6 6 7 6 5 5 8 7 9 8 6 7 6 5 5 7 8 8 9 9 9 8 6 7 11 11 7 nan
nan 9 8 6 7 5 11 9 6 7 5 8 9 8 8 6 7 6 6 6 6 7 6 5 7 7 7 7 7 6 9 8 5 5 4 5 6 7 7 10 9 9 9 7 7 7 9 10 nan
nan 10 7 12 3 11 3 8 21 7 5 7 7 8 8 8 7 7 7 6 6 6 6 7 7 8 9 6 5 3 6 9 8 8 8 5 5 8 8 8 8 10 8 7 8 8 9 10 nan
nan 12 9 6 5 10 5 7 19 12 7 10 9 9 8 8 7 7 7 6 7 6 7 7 7 7 7 8 8 8 9 8 6 7 6 6 4 4 7 8 8 9 8 7 7 8 10 10 nan
nan 7 8 9 10 13 17 13 12 12 10 13 11 7 9 7 7 6 7 6 7 7 7 8 7 7 7 8 7 9 9 9 7 6 7 6 7 5 6 8 7 7 7 8 8 8 8 9 nan
nan 5 8 10 9 9 15 10 12 14 17 16 13 9 8 7 5 6 7 6 7 7 6 6 7 7 8 8 8 8 7 8 9 7 7 9 9 7 6 7 8 7 7 8 9 9 7 8 nan
nan 4 3 5 10 12 5 11 6 9 13 16 17 10 9 6 5 6 6 7 7 7 6 7 7 7 7 7 7 9 8 6 7 8 9 10 8 8 7 7 7 7 8 8 9 10 7 7 nan
nan 9 3 6 9 8 8 11 9 8 11 15 14 10 9 6 6 6 6 8 8 8 8 8 7 7 8 7 7 7 8 8 8 9 9 8 10 8 5 7 8 8 8 8 9 9 8 7 nan
nan 14 8 9 10 14 6 6 15 14 8 11 10 11 9 7 6 6 7 9 8 9 9 8 8 8 8 7 7 7 8 8 7 7 8 9 8 6 6 7 8 8 8 8 9 8 8 9 nan
nan 8 3 8 11 9 10 7 11 16 9 12 10 10 9 8 6 7 8 8 9 10 9 8 9 9 7 7 8 7 7 8 7 8 8 7 6 6 7 8 8 8 8 8 9 8 8 7 nan
nan nan nan nan nan nan nan nan nan nan nan nan nan nan nan nan nan nan nan nan nan nan nan nan nan nan nan nan nan nan nan nan nan nan nan nan nan nan nan nan nan nan nan nan nan nan nan nan nan
CAPE
0 0 0 0 0 1 34 0 0 4 23 0 0 12 473 662 996 1278 1040 1606 1075 306 149 442 1554 1951 2223 2367 2452 2507 2629 2594 2494 2615 2628 2594 2278 2032 1996 2171 2149 1784 1120 1227 1353 1352 1449 1485 1515
0 0 0 0 0 17 25 0 49 1 0 0 0 76 648 988 913 865 1164 1524 1082 390 217 315 1442 1845 2150 2296 2405 2442 2485 2471 2579 2572 2507 2327 1997 1943 1846 2006 2251 1805 1008 815 902 1024 1088 1196 1387
0 0 0 0 4 9 28 0 14 2 0 8 47 529 1306 1482 1632 1518 1595 1565 1099 770 430 651 1342 1614 1979 2147 2249 2356 2384 2381 2463 2574 2327 2164 2023 1899 1831 2060 2218 1933 1203 834 604 593 673 720 776
0 0 0 0 9 0 0 0 32 27 20 50 222 1163 1399 1650 1865 1559 1823 1609 1315 1168 588 805 1107 1334 1672 1882 2012 2069 2063 2048 2365 2507 2376 1970 1801 1684 1629 1880 1961 1801 1754 1589 1202 736 469 441 469
0 0 0 1 0 0 0 0 4 90 105 118 293 1509 1593 1709 1745 1814 1891 1752 1596 1435 771 902 1029 1285 1623 1784 1718 1613 1653 1836 2147 2313 2200 1889 1739 1606 1494 1349 1130 891 844 712 715 1069 1260 1045 718
0 0 0 23 0 0 0 0 0 42 138 148 650 1792 1631 1659 1785 1931 1902 1905 1870 1803 1413 1018 1196 909 840 1069 1067 967 1055 1199 1302 1003 820 632 660 701 550 466 382 276 187 96 17 25 229 358 317
0 0 0 0 0 0 0 0 0 69 219 558 701 1975 1783 1823 1795 1737 2100 2347 2079 1905 2260 2077 1470 963 260 223 246 274 357 400 390 313 291 244 211 177 134 111 55 9 0 0 0 0 0 1 0
0 0 0 0 0 0 0 0 0 64 637 811 1253 1352 1966 1748 1648 1633 1665 1940 1940 2308 2443 2245 2069 1520 1013 502 167 173 218 254 228 221 157 155 109 27 0 0 0 0 0 0 0 0 0 0 0
0 0 0 0 0 0 0 0 0 53 1081 1208 1488 2069 1693 1478 1146 1055 1295 1657 1652 1335 1345 1874 1320 823 1070 573 182 278 229 185 204 236 237 221 133 1 0 0 0 0 0 0 0 0 0 0 0
0 0 0 0 0 0 0 0 0 62 980 1200 1343 1356 1150 839 586 340 598 835 761 936 664 749 535 405 141 119 21 45 56 2 2 20 118 17 0 0 0 0 0 0 0 0 0 0 0 0 0
0 0 0 0 0 0 0 0 0 3 694 1121 1102 992 560 278 363 696 670 620 550 534 481 500 301 28 12 3 2 0 2 0 0 0 0 0 0 0 0 0 0 0 0 0 0 0 0 0 0
0 0 0 0 0 0 0 0 239 617 859 1214 1052 642 341 545 624 764 771 311 353 105 12 6 15 14 11 3 5 7 0 0 0 0 0 0 0 0 0 0 0 0 0 0 0 0 0 0 0
0 0 0 0 0 0 0 106 632 717 718 858 727 467 546 536 803 715 480 549 42 5 1 0 1 10 11 6 5 2 0 0 0 0 0 0 0 0 0 0 0 0 0 0 0 0 0 0 0
0 0 0 0 0 0 0 83 211 339 435 588 517 648 545 551 719 589 455 124 3 1 1 0 0 4 6 5 0 0 0 0 0 0 0 0 0 0 0 0 0 0 0 0 0 0 0 0 0
0 0 0 0 0 0 0 23 267 291 242 287 446 457 587 649 490 548 548 113 57 1 0 0 0 0 0 0 0 0 0 0 0 0 0 0 0 0 0 0 0 0 0 0 0 0 0 0 0
0 0 0 0 0 0 0 270 91 133 125 189 206 457 404 490 572 394 176 76 12 0 0 0 0 0 0 0 0 0 0 0 0 0 1 0 0 0 0 0 0 0 0 0 0 0 0 0 0
0 0 0 0 0 0 0 287 140 170 89 153 124 226 265 318 223 73 156 159 7 0 0 0 0 0 0 0 0 0 0 0 0 0 0 1 0 0 3 3 1 2 0 0 0 0 0 0 0
0 0 0 0 0 0 2 305 202 188 124 129 88 73 102 61 97 159 74 1 0 0 0 0 0 0 0 0 0 0 0 0 2 3 3 5 5 1 0 6 0 0 0 0 0 0 0 0 0
0 0 0 0 0 0 0 214 249 113 134 111 66 45 40 88 18 0 0 0 0 0 0 0 0 0 0 0 0 0 0 4 5 9 9 4 2 1 1 1 0 0 0 0 0 0 0 0 0
0 0 0 0 0 0 5 82 307 172 117 83 51 10 54 58 0 0 0 0 0 0 0 0 0 0 0 0 0 0 0 3 8 6 2 1 1 0 0 0 0 0 0 0 0 0 0 0 0
0 0 0 0 0 0 0 42 185 228 11 35 9 54 172 25 0 0 0 0 0 0 0 0 0 0 0 0 0 0 0 6 10 4 0 0 0 0 0 0 0 0 0 0 0 0 0 0 0
0 0 0 0 0 4 0 40 152 192 215 75 218 231 85 5 0 0 0 0 0 0 0 0 0 0 0 0 0 0 1 2 2 1 0 0 0 0 0 0 0 0 0 0 0 0 0 0 0
0 0 0 0 0 0 1 0 134 168 220 295 328 188 53 0 0 0 0 0 0 0 0 0 0 0 0 0 0 0 0 3 4 0 0 0 0 0 0 0 0 0 0 0 0 0 0 0 0
0 0 0 0 0 4 6 31 122 116 105 188 304 119 16 0 0 0 0 0 0 0 0 0 0 0 0 0 0 0 1 0 1 2 1 0 0 0 0 0 0 0 0 0 0 0 0 0 0
0 0 2 9 19 12 0 0 40 6 0 115 172 83 4 0 0 0 0 0 0 0 0 0 0 0 0 0 1 3 3 0 0 0 0 0 0 0 0 0 0 0 0 0 0 0 0 0 0
0 0 15 45 28 30 0 0 138 26 0 37 159 121 0 0 0 0 0 0 0 0 0 0 0 0 0 1 0 0 0 0 0 0 0 0 0 0 0 0 0 0 0 0 0 0 0 0 0
0 0 9 31 12 38 36 41 80 5 13 102 179 159 7 0 0 0 0 0 0 0 0 0 0 0 0 1 0 0 0 0 0 0 0 0 0 0 0 0 0 0 0 0 0 0 0 0 0
0 17 11 15 19 33 31 27 124 3 5 55 76 113 9 0 0 13 10 21 0 0 0 0 0 0 0 0 0 0 0 0 0 0 0 0 0 0 0 0 0 0 0 0 0 0 0 0 0
0 23 9 42 50 50 17 66 9 1 1 26 48 26 14 4 22 23 21 2 4 0 0 0 0 0 0 0 0 0 0 0 0 0 0 0 0 0 0 0 0 0 0 0 0 0 0 0 0
26 28 27 80 51 33 67 88 0 0 0 40 47 59 50 64 37 15 4 0 0 0 0 2 0 0 0 0 0 0 0 0 0 0 0 0 0 0 0 0 0 0 0 0 0 0 0 0 0